When you browse on this site, cookies collect data to enhance your experience and personalize the content and advertising you see.
Visit our Privacy Policy to learn more. By continuing to use the site, you agree to this use of cookies and data.
  • In Hungary
  • List of Countries
  • For 7 days
  • Water Temperature
  • Weather Map
  • News
  • Weather Widgets
  • user-avatar
    Login

    Hourly Weather Nayarit

    Today, 8 December, Sunday

    Time Temperature Precipitation Wind Pressure Humidity
    00:00 +22°C° 0 mm 1 mps 743 mmHg 88%
    01:00 +22°C° 0 mm 1 mps 743 mmHg 87%
    02:00 +22°C° 0 mm 1 mps 742 mmHg 86%
    03:00 +22°C° 0 mm 1 mps 742 mmHg 85%
    04:00 +22°C° 0 mm 1 mps 743 mmHg 84%
    05:00 +21°C° 0 mm 1 mps 743 mmHg 83%
    06:00 +23°C° 0 mm 1 mps 743 mmHg 79%
    07:00 +24°C° 0 mm 1 mps 743 mmHg 74%
    08:00 +25°C° 0 mm 1 mps 744 mmHg 69%
    09:00 +28°C° 0 mm 1 mps 744 mmHg 61%
    10:00 +31°C° 0 mm 1 mps 743 mmHg 52%
    11:00 +34°C° 0 mm 1 mps 743 mmHg 43%
    12:00 +33°C° 0 mm 1 mps 742 mmHg 43%
    13:00 +33°C° 0 mm 1 mps 741 mmHg 42%
    14:00 +34°C° 0 mm 2 mps 741 mmHg 42%
    15:00 +31°C° 0 mm 1 mps 741 mmHg 52%
    16:00 +29°C° 0 mm 1 mps 741 mmHg 63%
    17:00 +27°C° 0 mm 1 mps 741 mmHg 73%
    18:00 +25°C° 0 mm 1 mps 741 mmHg 78%
    19:00 +24°C° 0 mm 1 mps 742 mmHg 83%
    20:00 +21°C° 0 mm 0 mps 742 mmHg 89%
    21:00 +22°C° 0 mm 1 mps 742 mmHg 88%
    22:00 +22°C° 0 mm 1 mps 742 mmHg 87%
    23:00 +22°C° 0 mm 1 mps 742 mmHg 86%

    Tomorrow, 9 December, Monday

    Time Temperature Precipitation Wind Pressure Humidity
    00:00 +22°C° 0 mm 1 mps 742 mmHg 84%
    01:00 +22°C° 0 mm 1 mps 742 mmHg 82%
    02:00 +21°C° 0 mm 1 mps 741 mmHg 79%
    03:00 +21°C° 0 mm 1 mps 741 mmHg 78%
    04:00 +21°C° 0 mm 1 mps 741 mmHg 76%
    05:00 +21°C° 0 mm 1 mps 741 mmHg 74%
    06:00 +22°C° 0 mm 1 mps 741 mmHg 70%
    07:00 +23°C° 0 mm 1 mps 742 mmHg 67%
    08:00 +24°C° 0 mm 1 mps 742 mmHg 63%
    09:00 +27°C° 0 mm 1 mps 742 mmHg 55%
    10:00 +30°C° 0 mm 1 mps 742 mmHg 47%
    11:00 +33°C° 0 mm 1 mps 741 mmHg 39%
    12:00 +33°C° 0 mm 1 mps 741 mmHg 40%
    13:00 +32°C° 0 mm 1 mps 740 mmHg 40%
    14:00 +32°C° 0 mm 2 mps 740 mmHg 40%
    15:00 +30°C° 0 mm 1 mps 740 mmHg 51%
    16:00 +28°C° 0 mm 1 mps 740 mmHg 62%
    17:00 +26°C° 0 mm 1 mps 740 mmHg 72%
    18:00 +25°C° 0 mm 1 mps 740 mmHg 79%
    19:00 +21°C° 0 mm 0 mps 741 mmHg 86%
    20:00 +20°C° 0 mm 0 mps 741 mmHg 93%
    21:00 +20°C° 0 mm 0 mps 741 mmHg 92%
    22:00 +21°C° 0 mm 1 mps 741 mmHg 91%
    23:00 +21°C° 0 mm 1 mps 742 mmHg 90%

    Day after tomorrow, 10 December, Tuesday

    Time Temperature Precipitation Wind Pressure Humidity
    00:00 +21°C° 0 mm 1 mps 741 mmHg 87%
    01:00 +21°C° 0 mm 1 mps 741 mmHg 84%
    02:00 +20°C° 0 mm 1 mps 741 mmHg 81%
    03:00 +20°C° 0 mm 1 mps 741 mmHg 79%
    04:00 +20°C° 0 mm 1 mps 741 mmHg 76%
    05:00 +20°C° 0 mm 1 mps 741 mmHg 73%
    06:00 +21°C° 0 mm 1 mps 742 mmHg 69%
    07:00 +22°C° 0 mm 1 mps 742 mmHg 65%
    08:00 +23°C° 0 mm 1 mps 743 mmHg 61%
    09:00 +26°C° 0 mm 1 mps 742 mmHg 53%
    10:00 +29°C° 0 mm 1 mps 742 mmHg 45%
    11:00 +30°C° 0 mm 0 mps 742 mmHg 38%
    12:00 +32°C° 0 mm 1 mps 741 mmHg 37%
    13:00 +32°C° 0 mm 1 mps 741 mmHg 36%
    14:00 +32°C° 0 mm 2 mps 740 mmHg 35%
    15:00 +30°C° 0 mm 1 mps 740 mmHg 46%
    16:00 +27°C° 0 mm 1 mps 740 mmHg 57%
    17:00 +25°C° 0 mm 1 mps 740 mmHg 69%
    18:00 +24°C° 0 mm 1 mps 741 mmHg 75%
    19:00 +22°C° 0 mm 1 mps 741 mmHg 81%
    20:00 +21°C° 0 mm 1 mps 742 mmHg 87%
    21:00 +21°C° 0 mm 1 mps 742 mmHg 84%
    22:00 +21°C° 0 mm 1 mps 742 mmHg 82%
    23:00 +20°C° 0 mm 1 mps 742 mmHg 79%

    11 December, Wednesday

    Time Temperature Precipitation Wind Pressure Humidity
    00:00 +20°C° 0 mm 1 mps 742 mmHg 75%
    01:00 +20°C° 0 mm 1 mps 742 mmHg 71%
    02:00 +19°C° 0 mm 2 mps 742 mmHg 66%
    03:00 +18°C° 0 mm 2 mps 742 mmHg 64%
    04:00 +18°C° 0 mm 2 mps 742 mmHg 62%
    05:00 +18°C° 0 mm 2 mps 742 mmHg 60%
    06:00 +19°C° 0 mm 2 mps 742 mmHg 58%
    07:00 +20°C° 0 mm 2 mps 743 mmHg 56%
    08:00 +21°C° 0 mm 2 mps 743 mmHg 54%
    09:00 +25°C° 0 mm 2 mps 743 mmHg 47%
    10:00 +28°C° 0 mm 1 mps 743 mmHg 40%
    11:00 +31°C° 0 mm 1 mps 743 mmHg 33%
    12:00 +32°C° 0 mm 1 mps 742 mmHg 32%
    13:00 +32°C° 0 mm 1 mps 741 mmHg 31%
    14:00 +33°C° 0 mm 1 mps 741 mmHg 31%
    15:00 +30°C° 0 mm 1 mps 741 mmHg 42%
    16:00 +28°C° 0 mm 1 mps 741 mmHg 52%
    17:00 +25°C° 0 mm 1 mps 741 mmHg 63%
    18:00 +24°C° 0 mm 1 mps 741 mmHg 67%
    19:00 +21°C° 0 mm 0 mps 741 mmHg 70%
    20:00 +19°C° 0 mm 0 mps 742 mmHg 74%
    21:00 +19°C° 0 mm 0 mps 742 mmHg 73%
    22:00 +21°C° 0 mm 1 mps 742 mmHg 73%
    23:00 +21°C° 0 mm 1 mps 742 mmHg 72%

    12 December, Thursday

    Time Temperature Precipitation Wind Pressure Humidity
    00:00 +21°C° 0 mm 1 mps 742 mmHg 71%
    01:00 +21°C° 0 mm 1 mps 742 mmHg 71%
    02:00 +21°C° 0 mm 1 mps 742 mmHg 70%
    03:00 +21°C° 0 mm 1 mps 742 mmHg 69%
    04:00 +20°C° 0 mm 1 mps 742 mmHg 69%
    05:00 +20°C° 0 mm 1 mps 742 mmHg 68%
    06:00 +21°C° 0 mm 1 mps 743 mmHg 66%
    07:00 +22°C° 0 mm 1 mps 743 mmHg 64%
    08:00 +23°C° 0 mm 1 mps 743 mmHg 62%
    09:00 +26°C° 0 mm 1 mps 743 mmHg 54%
    10:00 +29°C° 0 mm 1 mps 743 mmHg 45%
    11:00 +30°C° 0 mm 0 mps 743 mmHg 37%
    12:00 +32°C° 0 mm 1 mps 742 mmHg 36%
    13:00 +32°C° 0 mm 1 mps 742 mmHg 34%
    14:00 +32°C° 0 mm 1 mps 741 mmHg 33%
    15:00 +30°C° 0 mm 1 mps 741 mmHg 43%
    16:00 +28°C° 0 mm 1 mps 741 mmHg 54%
    17:00 +25°C° 0 mm 1 mps 741 mmHg 64%
    18:00 +24°C° 0 mm 1 mps 742 mmHg 69%
    19:00 +22°C° 0 mm 1 mps 742 mmHg 73%
    20:00 +21°C° 0 mm 1 mps 743 mmHg 78%
    21:00 +21°C° 0 mm 1 mps 743 mmHg 75%
    22:00 +20°C° 0 mm 1 mps 743 mmHg 72%
    23:00 +20°C° 0 mm 1 mps 743 mmHg 70%

    13 December, Friday

    Time Temperature Precipitation Wind Pressure Humidity
    00:00 +20°C° 0 mm 1 mps 743 mmHg 67%
    01:00 +20°C° 0 mm 1 mps 742 mmHg 65%
    02:00 +19°C° 0 mm 1 mps 742 mmHg 62%
    03:00 +18°C° 0 mm 2 mps 742 mmHg 61%
    04:00 +18°C° 0 mm 2 mps 742 mmHg 60%
    05:00 +18°C° 0 mm 2 mps 742 mmHg 59%
    06:00 +19°C° 0 mm 2 mps 743 mmHg 56%
    07:00 +20°C° 0 mm 2 mps 743 mmHg 54%
    08:00 +21°C° 0 mm 2 mps 743 mmHg 52%
    09:00 +26°C° 0 mm 1 mps 743 mmHg 44%
    10:00 +29°C° 0 mm 1 mps 743 mmHg 36%
    11:00 +32°C° 0 mm 1 mps 743 mmHg 28%
    12:00 +33°C° 0 mm 1 mps 742 mmHg 28%
    13:00 +33°C° 0 mm 1 mps 741 mmHg 27%
    14:00 +33°C° 0 mm 1 mps 740 mmHg 26%
    15:00 +31°C° 0 mm 1 mps 740 mmHg 36%
    16:00 +28°C° 0 mm 1 mps 740 mmHg 46%
    17:00 +25°C° 0 mm 1 mps 740 mmHg 56%
    18:00 +24°C° 0 mm 1 mps 741 mmHg 58%
    19:00 +22°C° 0 mm 1 mps 741 mmHg 60%
    20:00 +21°C° 0 mm 1 mps 741 mmHg 62%
    21:00 +21°C° 0 mm 1 mps 742 mmHg 61%
    22:00 +21°C° 0 mm 1 mps 742 mmHg 60%
    23:00 +20°C° 0 mm 1 mps 742 mmHg 58%
    Show more